Location: Lake Arresoe
(56.0000°N, 12.5000°E)
Time: 23:35:05
(UTC+01:00)

Cosmos 2058 - Pass Details

Date: 14 October 2019
Orbit: 562 x 584 km, 82.5° (Epoch: 20 November)

Event Time Altitude Azimuth Distance (km) Brightness Sun altitude
Rises 19:04:47 0° 357° (N) 2,823 6.5 -8.0°
Reaches altitude 10° 19:07:59 10° 23° (NNE) 1,919 5.3 -8.5°
Maximum altitude 19:10:15 14° 55° (NE) 1,668 4.8 -8.8°
Enters shadow 19:11:53 12° 80° (E) 1,802 4.8 -9.0°
